Theta_e
284 284 284 284 284 284 284 284 285 285 285 285 285 284 284 284 284 284 284 284 284 284 284 284 284 284 284 284 285 285 285 285 285 285 285 286 286 287 287 287 287 288
284 284 284 284 284 284 284 284 284 284 284 284 284 284 284 284 284 283 283 284 284 283 284 284 284 284 284 284 284 285 285 285 285 285 285 285 285 286 286 286 286 287
284 284 284 283 283 283 283 283 283 283 283 283 283 283 283 283 283 283 283 283 283 283 283 283 283 284 283 284 284 284 284 285 284 284 284 285 285 285 285 285 286 286
284 284 283 283 283 283 283 283 283 283 283 283 283 283 283 283 283 283 283 283 283 283 283 283 283 283 283 283 283 284 284 284 284 284 284 284 284 284 285 285 285 285
284 284 283 283 283 283 283 283 283 283 283 283 283 283 283 283 283 283 283 283 283 283 283 283 283 283 283 283 283 283 284 284 284 283 284 284 284 284 284 284 284 284
284 284 283 283 283 283 283 283 283 283 283 283 283 283 283 283 283 283 283 283 283 283 283 283 283 283 283 283 283 283 283 283 283 283 283 283 284 284 284 284 284 284
284 284 283 283 283 283 283 283 283 283 283 283 283 283 283 283 283 283 283 283 282 282 282 282 282 282 282 282 282 282 283 283 283 283 283 283 283 283 284 284 284 284
284 284 284 284 284 283 283 283 283 283 283 283 283 283 283 283 283 283 282 282 282 282 282 282 282 282 282 282 282 282 282 282 282 282 282 283 283 283 283 283 283 283
284 284 284 284 284 284 283 283 283 283 283 283 283 283 283 283 283 283 282 282 282 282 282 282 282 282 282 282 282 282 282 282 282 282 282 282 282 283 283 283 283 283
285 284 284 284 284 284 284 283 283 283 283 283 283 283 283 283 283 283 283 282 282 282 282 282 282 282 282 282 281 281 281 281 281 282 282 282 282 282 282 282 282 282
286 286 285 284 284 284 284 284 283 283 283 283 283 283 283 283 283 283 283 283 283 283 283 282 282 282 282 282 281 281 281 281 281 281 281 282 282 282 282 282 282 282
287 287 286 285 284 283 283 283 283 283 283 283 283 283 283 283 283 283 283 283 283 283 283 282 282 282 282 281 281 281 281 281 281 281 281 282 282 282 282 282 282 282
287 287 286 285 284 283 283 283 283 283 283 283 283 283 283 283 283 283 283 283 283 283 283 283 282 282 281 281 281 281 281 281 281 281 281 281 281 281 281 281 281 281
287 287 286 285 284 284 283 283 283 283 283 283 283 283 283 283 283 283 283 283 283 283 283 283 282 282 281 281 281 281 281 281 281 281 281 281 281 281 281 281 281 281
287 287 286 286 285 284 284 283 283 283 283 283 283 283 283 283 283 283 283 283 282 282 282 282 282 282 281 281 281 281 281 281 281 281 281 281 281 281 281 281 281 281
287 287 287 286 286 285 284 284 283 283 283 283 283 283 283 283 283 282 282 282 282 282 282 282 282 282 281 281 281 281 281 281 281 281 281 281 281 281 281 281 280 280
287 287 287 286 286 286 285 284 284 284 283 283 283 283 283 283 282 282 282 282 282 282 282 282 282 281 281 281 280 281 281 281 281 281 281 281 281 281 281 280 280 280
287 287 287 287 286 286 286 285 284 284 284 284 283 283 283 283 282 282 282 282 282 282 282 282 282 281 281 280 280 280 281 281 281 281 281 281 281 280 280 280 280 280
288 287 287 287 287 286 286 285 285 284 284 284 284 283 283 283 282 282 282 282 282 282 282 281 281 281 280 280 280 280 281 281 281 281 280 280 280 280 280 280 280 279
288 287 287 287 287 287 286 286 285 285 284 284 284 283 283 283 282 282 282 282 282 281 281 280 280 280 279 279 280 280 281 280 280 280 280 280 280 279 279 279 279 279
288 287 287 287 287 287 286 286 285 285 284 284 284 283 283 282 282 282 281 281 281 280 280 279 279 279 278 279 279 280 280 280 280 279 279 279 279 279 279 278 278 278
288 288 287 287 287 286 286 286 285 284 284 284 283 283 282 282 281 281 280 280 280 279 279 278 278 278 278 278 279 279 279 279 279 279 278 278 278 278 278 278 278 278
288 287 287 287 286 286 285 285 284 284 283 283 282 282 281 281 280 280 279 279 278 278 278 277 277 277 277 277 278 278 278 278 278 278 278 278 277 277 277 277 277 277
288 287 287 286 285 285 285 284 283 283 283 282 281 281 280 279 279 278 278 277 277 277 277 277 277 276 276 276 277 277 277 277 277 277 277 277 277 277 277 277 277 277
287 287 286 285 285 284 284 283 283 282 282 281 280 279 278 278 277 277 277 277 276 276 276 276 276 275 275 275 276 276 277 277 277 277 277 277 277 277 276 276 276 276
286 286 285 285 284 283 283 282 282 281 280 279 278 277 277 276 276 276 276 276 276 275 275 275 275 275 275 275 275 276 276 276 276 276 276 276 276 276 276 276 276 276
Wind_Speed
25 25 25 25 25 25 25 25 24 25 25 25 25 25 26 26 27 29 30 30 31 33 33 34 35 35 35 34 34 32 32 32 33 33 33 32 31 32 32 32 33 33
22 23 23 24 24 24 24 24 24 24 24 24 24 25 25 26 27 28 29 29 30 31 32 33 33 34 34 33 32 32 31 32 32 33 33 33 32 32 32 32 33 33
20 20 21 21 22 22 22 23 23 23 23 23 24 24 25 26 27 28 28 29 29 30 31 31 32 32 33 33 32 32 31 30 31 32 32 31 31 32 31 31 32 33
17 17 18 19 19 19 20 20 21 22 22 23 23 23 24 25 26 27 28 28 29 30 30 31 32 32 32 32 31 31 30 29 30 31 31 30 30 30 31 31 31 31
13 14 15 15 16 16 17 18 19 20 21 21 22 22 23 23 24 25 26 27 27 28 29 30 31 31 31 31 31 31 30 30 30 31 31 30 30 29 30 30 31 31
10 11 12 13 13 14 15 15 16 17 18 19 20 21 22 23 24 25 26 26 27 28 28 29 30 31 31 31 31 30 30 29 30 31 30 30 30 30 29 30 30 31
8 9 9 10 10 11 12 13 14 14 15 16 18 19 21 23 24 25 26 27 28 29 29 29 30 31 31 31 31 30 30 30 30 31 31 30 30 31 31 30 29 30
6 7 7 8 9 10 12 13 14 14 15 17 18 19 20 22 23 23 24 24 25 26 27 28 28 29 29 30 30 30 29 29 30 30 31 31 31 32 33 32 32 31
6 7 8 9 10 11 12 13 13 14 15 15 16 17 18 19 20 21 21 22 22 23 24 25 25 26 27 28 29 29 29 28 28 29 29 30 30 31 32 33 33 33
8 9 10 11 12 13 13 13 12 12 12 12 12 12 13 14 16 17 19 20 21 21 22 23 24 25 25 27 27 28 28 27 28 28 28 28 29 29 31 32 32 33
11 11 12 13 13 13 13 12 11 11 10 11 11 12 13 14 15 16 17 19 21 22 24 24 25 26 26 27 27 26 26 27 27 27 28 28 29 29 30 30 32 33
13 13 12 12 13 13 13 12 11 11 11 12 13 15 16 16 17 18 19 20 21 22 24 26 27 28 29 29 29 28 27 27 28 29 29 30 30 30 30 31 31 32
14 14 13 13 13 13 13 13 12 13 14 14 15 16 18 19 20 21 21 22 23 24 24 26 27 29 31 31 31 31 30 31 31 31 32 32 33 33 33 33 33 32
16 15 15 15 14 14 14 14 14 15 15 16 16 17 19 20 21 22 24 25 26 27 27 27 27 29 30 31 31 32 32 33 34 34 35 36 36 36 36 35 35 35
19 18 18 17 17 17 16 16 16 16 17 17 18 19 21 22 22 23 25 27 28 29 29 29 30 31 31 31 31 31 31 32 34 34 35 37 38 38 38 37 37 37
21 21 21 20 20 20 19 19 18 18 19 20 20 22 23 23 24 25 26 28 29 30 31 31 32 33 33 33 33 31 31 31 33 34 35 36 37 38 39 39 37 37
24 23 23 23 23 23 22 22 21 20 21 22 23 24 24 24 25 26 27 29 30 31 32 32 33 34 34 34 34 32 31 33 34 35 35 35 35 37 38 38 38 37
26 26 26 25 25 26 25 24 23 23 23 24 25 25 25 25 26 27 28 29 30 31 32 33 33 33 33 34 33 32 31 33 35 36 36 36 36 36 37 38 38 38
27 28 27 28 28 28 27 26 26 26 26 26 27 26 26 26 27 28 29 29 30 32 32 33 33 33 33 34 33 32 30 31 35 36 37 37 37 37 38 38 38 38
29 29 29 30 29 29 29 28 28 28 28 28 27 26 27 27 28 29 29 30 31 31 32 33 33 33 33 33 32 31 31 32 34 36 37 37 38 38 39 39 39 40
29 30 30 31 31 31 30 30 30 30 29 27 26 26 27 27 28 29 30 30 30 30 31 33 33 34 33 32 31 31 32 33 35 36 37 38 39 40 40 41 42 42
28 30 31 31 31 31 31 31 31 30 28 26 25 26 27 28 29 29 29 29 29 30 31 34 35 35 33 31 32 32 33 34 36 37 38 39 40 41 41 41 42 43
27 28 30 30 30 30 30 30 29 27 25 24 25 26 27 28 29 29 29 29 31 32 32 34 36 36 35 33 33 34 34 35 36 37 37 38 39 40 41 42 42 43
27 27 28 29 28 28 29 27 25 23 22 23 25 27 28 28 28 30 31 31 32 33 33 35 37 38 38 36 35 34 34 34 36 36 37 38 39 39 40 41 43 43
27 27 27 26 26 26 25 22 21 21 22 24 25 26 28 29 29 30 32 33 33 33 34 35 38 39 40 38 36 34 33 34 35 35 36 37 38 38 40 41 44 46
26 25 24 24 23 22 20 19 19 22 23 24 26 27 27 29 29 30 32 35 34 34 34 35 37 39 40 39 36 34 34 34 34 34 35 36 37 37 39 40 42 43
Wind_Direction
60 59 58 57 57 55 53 52 50 48 46 43 42 40 38 38 36 36 37 37 36 35 34 33 32 31 30 29 28 27 26 24 22 19 18 17 15 13 11 9 7 6
60 60 59 58 57 55 54 53 51 49 48 45 42 40 39 37 36 35 34 34 33 33 32 31 30 29 28 27 26 25 23 21 19 17 16 15 12 10 8 6 5 3
59 58 58 57 55 53 52 51 50 49 47 46 43 40 39 37 36 35 33 32 31 30 29 28 27 27 25 24 23 22 21 19 16 14 13 13 10 8 6 3 1 0
58 57 56 55 53 51 49 47 47 46 44 43 41 39 38 36 35 33 32 31 29 27 26 25 24 23 22 21 20 18 17 15 13 10 9 9 7 5 3 0 358 357
57 57 56 54 52 48 46 44 43 42 40 39 37 35 34 32 31 30 29 28 26 25 23 22 21 19 18 17 15 14 12 10 8 6 5 3 2 1 359 357 355 353
48 49 49 49 48 44 43 42 40 38 38 36 33 31 29 27 26 24 22 21 21 19 18 17 16 15 13 12 11 9 7 5 3 1 1 358 356 355 354 353 351 349
35 35 37 37 37 36 35 34 33 31 30 28 27 26 25 23 21 19 17 16 15 13 12 10 9 8 7 6 5 3 2 360 358 356 355 353 351 349 349 348 346 345
27 25 25 23 22 24 24 23 23 21 19 18 18 18 18 17 16 14 13 11 9 8 6 4 2 0 360 358 357 355 354 353 352 351 349 348 346 345 344 343 341 339
8 6 7 5 6 7 9 11 12 12 12 8 8 8 7 7 5 3 3 1 0 359 357 356 355 353 352 351 349 347 346 345 344 343 342 341 340 339 338 338 336 334
352 351 349 348 348 347 347 350 351 352 354 352 351 351 350 349 348 347 346 345 346 346 346 346 346 345 345 344 343 341 339 338 337 336 335 334 332 332 331 331 330 328
335 336 335 332 326 322 322 324 326 326 327 328 327 326 326 326 327 329 330 331 333 335 335 337 338 338 337 336 337 336 333 331 330 329 329 327 326 325 325 324 323 322
310 312 314 311 304 302 302 302 305 306 308 311 313 314 316 318 321 323 323 323 325 327 329 332 334 334 334 334 333 332 330 328 326 325 323 322 321 320 319 318 317 316
287 289 291 292 292 292 291 292 296 299 301 306 309 312 315 319 321 323 324 323 322 322 324 326 328 330 331 332 331 330 328 325 324 323 321 319 318 317 316 315 313 311
277 279 280 284 287 286 287 289 293 297 301 305 308 311 315 319 322 323 323 323 322 322 322 321 322 323 325 326 326 325 323 322 321 320 318 316 315 313 313 312 310 309
276 276 278 281 283 284 285 287 290 295 300 303 307 311 315 317 320 321 320 320 320 320 320 319 318 318 320 320 319 318 317 316 315 314 313 311 310 309 308 307 306 306
275 275 276 278 281 284 286 286 288 292 296 300 304 309 313 316 317 317 316 317 317 316 315 314 313 314 315 315 314 313 312 310 309 307 306 305 304 303 303 303 303 303
275 275 275 276 279 283 285 286 288 289 291 295 300 304 309 312 312 312 312 313 312 310 309 307 307 308 309 309 309 309 307 306 305 304 302 301 300 299 299 300 301 300
277 276 276 276 278 281 285 287 288 287 288 290 294 300 305 307 307 307 308 308 306 304 303 301 301 302 304 305 305 304 303 303 303 301 301 299 298 298 297 298 299 299
280 278 278 278 278 280 283 286 286 285 286 288 291 297 301 303 304 304 304 303 302 300 299 298 298 300 302 303 302 300 298 298 299 298 297 297 297 297 297 297 298 298
280 279 278 279 280 280 281 283 284 284 285 286 290 296 300 301 302 302 301 301 299 298 296 296 297 298 300 300 298 297 296 296 296 295 294 294 294 294 295 295 296 296
279 279 279 279 280 279 279 281 282 283 284 287 291 296 299 300 300 300 299 299 298 297 296 295 296 298 299 298 296 295 296 295 295 294 294 293 293 293 293 293 294 294
278 278 278 278 278 277 277 279 281 282 285 289 293 296 297 299 299 298 298 297 297 296 295 295 296 298 299 297 296 296 297 296 296 295 294 293 292 293 293 293 293 292
277 278 277 277 277 276 276 278 280 283 287 291 294 296 297 298 297 297 296 296 296 296 295 295 297 299 299 298 297 297 298 298 297 295 294 293 292 292 293 293 292 291
276 277 277 277 276 275 276 279 281 284 288 292 294 295 296 296 296 297 296 296 295 295 296 296 297 299 301 299 298 298 298 298 297 295 294 293 292 292 293 292 292 290
274 275 276 277 276 276 277 278 281 285 289 292 294 294 296 296 296 296 296 296 295 295 296 297 298 299 302 301 300 299 298 297 297 295 294 293 293 293 292 292 291 290
273 275 276 276 275 274 276 277 282 288 291 293 295 296 297 297 296 296 295 295 296 297 297 298 298 299 301 302 300 299 298 298 297 296 294 293 293 293 292 291 290 289